Weather History for KHEY - February, 2014

Change the Weather History Date:

Wednesday, February 12, 2014

  Actual Average (KOZR) Record (KOZR)
Temperature  
Mean Temperature 39 °F -  
Max Temperature 42 °F 61 °F 82 °F (2000)
Min Temperature 36 °F 40 °F 22 °F (2012)
Degree Days  
Heating Degree Days 26    
Moisture  
Dew Point 38 °F    
Average Humidity 95    
Maximum Humidity 100    
Minimum Humidity 89    
Precipitation  
Precipitation 2.07 in - - ()
Sea Level Pressure  
Sea Level Pressure 29.91 in    
Wind  
Wind Speed 12 mph (NE)    
Max Wind Speed 22 mph    
Max Gust Speed 29 mph    
Visibility 4 miles    
Events Rain , Thunderstorm    
Averages and records for this station are not official NWS values.
T = Trace of Precipitation, MM = Missing Value Source: NWS Daily Summary

Daily Weather History Graph

Daily Weather History Graph

Search for Another Location

Airport or City:

Trip Planner

Search our weather history database for the weather conditions in past years. The results will help you decide how hot, cold, wet, or windy it might be!

Date:

Astronomy

Feb. 12, 2014 Rise Set
Actual Time 6:26 AM CST 5:27 PM CST
Civil Twilight 6:01 AM CST 5:52 PM CST
Nautical Twilight 5:33 AM CST 6:20 PM CST
Astronomical Twilight 5:04 AM CST 6:49 PM CST
Moon 3:43 PM CST (2/12) 4:39 AM CST (2/12)
Length of Visible Light 11h 50m
Length of Day
11h 00m
Waxing Gibbous, 95% of the Moon is Illuminated
Feb 12
Waxing Gibbous
Feb 14
Full
Feb 22
Last Quarter
Mar 1
New
Mar 8
First Quarter

Hourly Weather History & Observations

Time (CST) Temp. Windchill Dew Point Humidity Pressure Visibility Wind Dir Wind Speed Gust Speed Precip Events Conditions
12:43 AM 42.1 °F 36.1 °F 39.9 °F 92% 30.05 in 2.5 mi NE 10.4 mph 18.4 mph 0.15 in Rain Heavy Rain
12:53 AM 42.1 °F 36.1 °F 39.9 °F 92% 30.01 in 3.0 mi ENE 10.4 mph - 0.19 in Rain Rain
1:53 AM 41.0 °F 33.9 °F 39.0 °F 93% 29.97 in 8.0 mi East 12.7 mph 24.2 mph 0.11 in Rain Light Rain
2:11 AM 41.0 °F 33.1 °F 39.0 °F 93% 30.04 in 1.8 mi East 15.0 mph 23.0 mph 0.11 in Rain Heavy Rain
2:20 AM 41.0 °F 33.1 °F 39.0 °F 93% 30.01 in 3.0 mi ENE 15.0 mph 24.2 mph 0.13 in Rain Rain
2:41 AM 39.9 °F 32.1 °F 39.0 °F 97% 29.99 in 6.0 mi East 13.8 mph - 0.14 in Rain Light Rain
2:53 AM 39.9 °F 32.1 °F 39.0 °F 97% 29.97 in 4.0 mi East 13.8 mph - 0.17 in Rain Rain
3:53 AM 39.9 °F 33.9 °F 39.0 °F 97% 29.97 in 3.0 mi NNE 9.2 mph - 0.18 in Rain Light Rain
4:09 AM 39.9 °F 32.9 °F 37.9 °F 93% 29.98 in 3.0 mi NE 11.5 mph - 0.06 in Rain Rain
4:27 AM 39.9 °F 31.8 °F 39.0 °F 97% 29.98 in 2.5 mi NE 15.0 mph 19.6 mph 0.15 in Rain Rain
4:31 AM 39.9 °F 32.9 °F 37.9 °F 93% 29.99 in 3.0 mi NE 11.5 mph - 0.16 in Rain Rain
4:37 AM 39.9 °F 32.1 °F 37.9 °F 93% 30.00 in 2.5 mi North 13.8 mph - 0.21 in Rain Rain
4:42 AM 39.9 °F 32.1 °F 37.9 °F 93% 30.01 in 3.0 mi North 13.8 mph - 0.22 in Rain , Thunderstorm Light Thunderstorms and Rain
5:02 AM 39.0 °F 31.4 °F 37.9 °F 96% 30.06 in 2.5 mi NNE 12.7 mph 23.0 mph 0.07 in Rain Heavy Rain
5:07 AM 39.0 °F 31.0 °F 37.9 °F 96% 30.06 in 1.8 mi NNW 13.8 mph 24.2 mph 0.17 in Rain , Thunderstorm Heavy Thunderstorms and Rain
5:16 AM 39.0 °F 30.6 °F 37.9 °F 96% 30.07 in 2.5 mi North 15.0 mph - 0.22 in Rain , Thunderstorm Heavy Thunderstorms and Rain
5:20 AM 39.0 °F 30.6 °F 37.0 °F 93% 30.09 in 2.5 mi North 15.0 mph 24.2 mph 0.27 in Rain Heavy Rain
5:34 AM 39.0 °F 31.4 °F 37.0 °F 93% 30.09 in 2.5 mi ENE 12.7 mph - 0.39 in Rain Heavy Rain
5:43 AM 39.0 °F 30.3 °F 37.0 °F 93% 30.06 in 3.0 mi ENE 16.1 mph 21.9 mph 0.45 in Rain Heavy Rain
5:53 AM 39.0 °F 29.9 °F 37.0 °F 93% 29.99 in 4.0 mi East 17.3 mph - 0.50 in Rain Heavy Rain
6:11 AM 37.9 °F 27.3 °F 37.0 °F 97% 30.00 in 4.0 mi East 21.9 mph 28.8 mph 0.08 in Rain Heavy Rain
6:53 AM 39.0 °F 29.9 °F 37.0 °F 93% 29.96 in 4.0 mi East 17.3 mph - 0.27 in Rain Rain
7:44 AM 39.9 °F 31.4 °F 37.9 °F 93% 29.96 in 4.0 mi East 16.1 mph 23.0 mph 0.23 in Rain Rain
7:53 AM 39.9 °F 32.9 °F 39.0 °F 97% 29.95 in 4.0 mi East 11.5 mph 23.0 mph 0.27 in Rain Rain
8:53 AM 39.9 °F 33.9 °F 37.9 °F 93% 29.97 in 3.0 mi NE 9.2 mph - 0.14 in Rain Heavy Rain
8:57 AM 39.9 °F 33.4 °F 37.9 °F 93% 29.99 in 1.8 mi ENE 10.4 mph - 0.03 in Rain Heavy Rain
9:05 AM 39.9 °F 32.9 °F 39.0 °F 97% 29.98 in 3.0 mi ENE 11.5 mph - 0.04 in Rain Light Rain
9:53 AM 39.9 °F 32.1 °F 37.9 °F 93% 29.93 in 10.0 mi East 13.8 mph - 0.06 in   Overcast
10:53 AM 39.9 °F 32.9 °F 39.0 °F 97% 29.91 in 10.0 mi ENE 11.5 mph - 0.01 in   Overcast
11:53 AM 39.9 °F 31.8 °F 39.0 °F 97% 29.87 in 10.0 mi East 15.0 mph 19.6 mph N/A   Overcast
12:15 PM 39.9 °F 31.8 °F 39.0 °F 97% 29.86 in 2.5 mi East 15.0 mph - 0.00 in Rain Light Rain
12:53 PM 39.9 °F 32.9 °F 39.0 °F 97% 29.82 in 2.0 mi East 11.5 mph - 0.01 in Rain Light Rain
1:20 PM 41.0 °F 35.8 °F 39.0 °F 93% 29.84 in 3.0 mi NE 8.1 mph - 0.00 in Rain Light Rain
1:53 PM 39.9 °F 34.5 °F 39.0 °F 97% 29.80 in 2.0 mi ENE 8.1 mph - 0.01 in Rain Light Rain
2:26 PM 39.9 °F 33.9 °F 39.0 °F 97% 29.81 in 2.0 mi ENE 9.2 mph - 0.01 in   Overcast
2:50 PM 39.2 °F 33.6 °F 39.2 °F 100% 29.79 in 1.8 mi NE 8.1 mph - 0.01 in Rain Light Rain
2:53 PM 39.9 °F 33.4 °F 37.9 °F 93% 29.78 in 2.0 mi NE 10.4 mph - 0.01 in Rain Light Rain
3:18 PM 39.9 °F 33.9 °F 37.9 °F 93% 29.80 in 4.0 mi NE 9.2 mph - 0.00 in   Overcast
3:37 PM 39.9 °F 33.9 °F 37.9 °F 93% 29.80 in 2.5 mi NNE 9.2 mph - 0.00 in Rain Light Rain
3:53 PM 39.0 °F 31.4 °F 37.9 °F 96% 29.78 in 2.0 mi NNE 12.7 mph - 0.01 in   Overcast
4:30 PM 39.0 °F 31.4 °F 37.0 °F 93% 29.79 in 3.0 mi NNE 12.7 mph - 0.02 in Rain Light Rain
4:44 PM 37.9 °F 32.1 °F 37.0 °F 97% 29.78 in 2.5 mi NNE 8.1 mph - 0.02 in Rain Light Rain
4:53 PM 37.9 °F 30.9 °F 37.0 °F 97% 29.76 in 2.5 mi NNE 10.4 mph - 0.02 in Rain Light Rain
5:01 PM 37.9 °F 31.5 °F 37.0 °F 97% 29.78 in 3.0 mi NE 9.2 mph - 0.00 in Rain Light Rain
5:53 PM 37.0 °F 29.8 °F 36.0 °F 96% 29.77 in 5.0 mi North 10.4 mph - 0.01 in Rain Light Rain
6:53 PM 37.0 °F 31.6 °F 36.0 °F 96% 29.79 in 4.0 mi NNE 6.9 mph - 0.09 in Rain Light Rain
7:24 PM 37.0 °F 31.0 °F 35.1 °F 93% 29.80 in 3.0 mi North 8.1 mph - 0.00 in Rain Light Rain
7:53 PM 37.0 °F 31.0 °F 35.1 °F 93% 29.79 in 4.0 mi North 8.1 mph - 0.00 in Rain Light Rain
8:53 PM 36.0 °F 28.5 °F 35.1 °F 97% 29.79 in 3.0 mi North 10.4 mph - 0.01 in   Overcast
9:53 PM 36.0 °F 29.0 °F 34.0 °F 93% 29.80 in 10.0 mi NNW 9.2 mph - 0.00 in   Overcast
10:53 PM 36.0 °F 29.0 °F 34.0 °F 93% 29.79 in 10.0 mi NNW 9.2 mph - 0.00 in   Overcast
11:53 PM 36.0 °F 29.0 °F 33.1 °F 89% 29.80 in 10.0 mi NNW 9.2 mph - 0.00 in   Overcast